Location: Bathurst
(33.4193°S, 149.5775°E)
Time: 10:13:27
(UTC+10:00)

Envisat - Visible Passes

Search period start: 08 July 2020 00:00
Search period end: 18 July 2020 00:00
Orbit: 764 x 766 km, 98.1° (Epoch: 07 July)

Date Brightness Start Highest point End Pass type
(mag) Time Alt. Az. Time Alt. Az. Time Alt. Az.
08 Jul 5.4 04:28:15 10° ENE 04:31:47 19° ESE 04:35:20 10° SSE visible
08 Jul 3.4 06:05:38 10° N 06:10:25 41° W 06:15:17 10° SSW visible
08 Jul 3.0 18:18:25 10° S 18:23:34 86° WSW 18:28:40 10° NNW visible
09 Jul 3.1 05:28:31 10° NNE 05:33:37 81° ESE 05:38:46 10° S visible
09 Jul 3.5 17:41:56 10° SSE 17:46:45 39° E 17:51:29 10° NNE visible
09 Jul 5.4 19:21:44 10° SSW 19:25:26 20° WSW 19:29:06 10° WNW visible
10 Jul 4.5 04:52:26 10° NE 04:57:00 34° ESE 05:01:35 10° S visible
10 Jul 4.2 06:32:03 10° NW 06:36:00 23° W 06:40:00 10° SW visible
10 Jul 4.0 18:44:01 10° S 18:48:56 46° WSW 18:53:47 10° NW visible
11 Jul 5.7 04:17:45 10° E 04:20:34 15° ESE 04:23:24 10° SSE visible
11 Jul 3.1 05:54:05 10° N 05:59:04 54° W 06:04:06 10° SSW visible
11 Jul 2.9 18:07:05 10° SSE 18:12:14 74° ENE 18:17:19 10° N visible
11 Jul 5.9 19:49:09 10° SW 19:50:33 11° WSW 19:51:56 10° W visible
12 Jul 3.4 05:17:17 10° NNE 05:22:18 63° ESE 05:27:23 10° S visible
12 Jul 3.9 17:30:51 10° SE 17:35:21 30° E 17:39:48 10° NNE visible
12 Jul 5.0 19:10:01 10° SSW 19:14:12 26° WSW 19:18:20 10° NW visible
13 Jul 4.9 04:41:32 10° NE 04:45:45 27° ESE 04:49:59 10° SSE visible
13 Jul 3.9 06:20:13 10° NNW 06:24:36 29° W 06:29:03 10° SW visible
13 Jul 3.5 18:32:34 10° S 18:37:38 60° WSW 18:42:38 10° NNW visible
14 Jul 5.9 04:07:43 10° E 04:09:23 12° ESE 04:11:02 10° SE visible
14 Jul 2.9 05:42:38 10° N 05:47:43 71° WNW 05:52:51 10° SSW visible
14 Jul 3.1 17:55:50 10° SSE 18:00:53 56° E 18:05:53 10° N visible
14 Jul 5.8 19:36:39 10° SSW 19:39:21 14° WSW 19:42:03 10° W visible
15 Jul 3.9 05:06:08 10° NNE 05:11:01 48° ESE 05:15:57 10° S visible
15 Jul 4.6 18:58:23 10° S 19:02:57 33° WSW 19:07:28 10° NW visible
16 Jul 5.3 04:30:45 10° ENE 04:34:30 21° ESE 04:38:17 10° SSE visible
16 Jul 3.5 06:08:30 10° NNW 06:13:13 38° W 06:17:59 10° SSW visible
16 Jul 3.1 18:21:11 10° S 18:26:20 78° WSW 18:31:25 10° NNW visible
17 Jul 3.0 05:31:17 10° NNE 05:36:22 89° E 05:41:33 10° SSW visible
17 Jul 3.4 17:44:38 10° SSE 17:49:32 43° E 17:54:21 10° N visible
17 Jul 5.5 19:24:41 10° SSW 19:28:09 19° WSW 19:31:36 10° WNW visible
